Ionia, MI

3:57 PM EST on December 09, 2019 (GMT -0500)
Ionia

Weather History for KY70 - November, 2019

Change the Weather History Date:

Tuesday, November 19, 2019

  Actual Average (KGRR) Record (KGRR)
Temperature  
Mean Temperature 40 °F -  
Max Temperature 42 °F 46 °F 74 °F (1930)
Min Temperature 38 °F 31 °F 9 °F (1986)
Degree Days  
Heating Degree Days 25    
Moisture  
Dew Point 36 °F    
Average Humidity 86    
Maximum Humidity 97    
Minimum Humidity 69    
Precipitation  
Precipitation 0.00 in - - ()
Sea Level Pressure  
Sea Level Pressure 29.81 in    
Wind  
Wind Speed 3 mph ()    
Max Wind Speed 8 mph    
Max Gust Speed -    
Visibility 5.1 miles    
Events Fog    
Averages and records for this station are not official NWS values.
T = Trace of Precipitation, MM = Missing Value Source: Averaged Metar Reports

Daily Weather History Graph

Daily Weather History Graph

Search for Another Location

Airport or City:

Astronomy

Nov. 19, 2019 Rise Set
Actual Time 7:37 AM EST 5:13 PM EST
Civil Twilight 7:06 AM EST 5:44 PM EST
Nautical Twilight 6:31 AM EST 6:18 PM EST
Astronomical Twilight 5:58 AM EST 6:52 PM EST
Moon No Moon Rise 1:46 PM EST (11/19)
Length of Visible Light 10h 38m
Length of Day
9h 36m
Waning Gibbous, 52% of the Moon is Illuminated
Nov 19
Waning Gibbous
Nov 19
Last Quarter
Nov 26
New
Dec 4
First Quarter
Dec 12
Full

Hourly Weather History & Observations

Time (EST) Temp. Windchill Dew Point Humidity Pressure Visibility Wind Dir Wind Speed Gust Speed Precip Events Conditions
12:15 AM 39.2 °F - 37.8 °F 95% 29.72 in 0.2 mi Calm Calm - N/A Fog Fog
12:16 AM 39.2 °F - 37.8 °F 95% 29.72 in 0.2 mi Calm Calm - N/A Fog Fog
12:35 AM 39.2 °F 37.0 °F 37.9 °F 95% 29.73 in 0.2 mi SW 3.5 mph - N/A Fog Fog
12:36 AM 39.2 °F 37.0 °F 37.9 °F 95% 29.73 in 0.2 mi SW 3.5 mph - N/A Fog Fog
12:55 AM 39.2 °F 37.0 °F 37.9 °F 95% 29.73 in 0.2 mi WSW 3.5 mph - N/A Fog Fog
1:15 AM 39.2 °F 37.0 °F 37.9 °F 95% 29.73 in 0.2 mi WSW 3.5 mph - N/A Fog Fog
1:16 AM 39.2 °F 37.0 °F 37.9 °F 95% 29.73 in 0.2 mi WSW 3.5 mph - N/A Fog Fog
1:35 AM 39.0 °F 36.8 °F 37.9 °F 96% 29.73 in 0.2 mi WSW 3.5 mph - N/A Fog Fog
1:55 AM 39.2 °F 37.0 °F 37.9 °F 95% 29.73 in 0.2 mi WSW 3.5 mph - N/A Fog Fog
1:56 AM 39.2 °F 37.0 °F 37.9 °F 95% 29.73 in 0.2 mi WSW 3.5 mph - N/A Fog Fog
2:15 AM 39.0 °F 36.8 °F 37.8 °F 95% 29.73 in 0.2 mi WSW 3.5 mph - N/A Fog Fog
2:16 AM 39.0 °F 36.8 °F 37.9 °F 96% 29.73 in 0.2 mi WSW 3.5 mph - N/A Fog Fog
2:35 AM 39.2 °F 37.0 °F 37.9 °F 95% 29.73 in 0.2 mi West 3.5 mph - N/A Fog Fog
2:36 AM 39.2 °F - 37.9 °F 95% 29.73 in 0.2 mi Calm Calm - N/A Fog Fog
2:55 AM 39.2 °F 37.0 °F 37.9 °F 95% 29.73 in 1.5 mi West 3.5 mph - N/A   Overcast
3:15 AM 38.8 °F 36.5 °F 37.8 °F 96% 29.73 in 1.8 mi West 3.5 mph - N/A   Overcast
3:16 AM 38.8 °F 36.5 °F 37.8 °F 96% 29.73 in 2.0 mi West 3.5 mph - N/A   Overcast
3:35 AM 38.7 °F 36.3 °F 37.6 °F 96% 29.74 in 3.0 mi West 3.5 mph - N/A   Overcast
3:55 AM 38.7 °F 35.2 °F 37.6 °F 96% 29.73 in 3.0 mi West 4.6 mph - N/A   Overcast
3:56 AM 38.5 °F 36.1 °F 37.4 °F 96% 29.73 in 3.0 mi West 3.5 mph - N/A   Overcast
4:15 AM 38.5 °F 35.0 °F 37.4 °F 96% 29.73 in 2.5 mi WSW 4.6 mph - N/A   Overcast
4:16 AM 38.5 °F 35.0 °F 37.4 °F 96% 29.73 in 2.5 mi West 4.6 mph - N/A   Overcast
4:35 AM 38.3 °F - 37.4 °F 97% 29.73 in 2.5 mi Calm Calm - N/A   Overcast
4:36 AM 38.3 °F 35.9 °F 37.4 °F 97% 29.73 in 2.0 mi West 3.5 mph - N/A   Overcast
4:55 AM 38.5 °F - 37.4 °F 96% 29.73 in 2.0 mi Calm Calm - N/A   Overcast
5:15 AM 38.5 °F - 37.4 °F 96% 29.73 in 1.8 mi Calm Calm - N/A   Overcast
5:16 AM 38.5 °F - 37.4 °F 96% 29.73 in 1.8 mi Calm Calm - N/A   Overcast
5:35 AM 38.7 °F - 37.6 °F 96% 29.73 in 1.0 mi Calm Calm - N/A   Overcast
5:55 AM 38.7 °F - 37.6 °F 96% 29.73 in 0.5 mi Calm Calm - N/A Fog Fog
5:56 AM 38.7 °F - 37.6 °F 96% 29.73 in 0.5 mi Calm Calm - N/A Fog Fog
6:15 AM 38.7 °F - 37.6 °F 96% 29.73 in 0.5 mi Calm Calm - N/A Fog Fog
6:35 AM 38.3 °F - 37.4 °F 97% 29.74 in 0.2 mi Calm Calm - N/A   Unknown
6:36 AM 38.3 °F - 37.4 °F 97% 29.74 in 0.2 mi Calm Calm - N/A   Unknown
6:55 AM 38.3 °F - 37.4 °F 97% 29.75 in 0.2 mi Calm Calm - N/A   Unknown
7:15 AM 38.3 °F - 37.4 °F 97% 29.76 in 0.2 mi Calm Calm - N/A   Unknown
7:16 AM 38.3 °F - 37.4 °F 97% 29.76 in 0.2 mi Calm Calm - N/A   Unknown
7:35 AM 38.3 °F - 37.0 °F 95% 29.77 in 0.2 mi Calm Calm - N/A   Unknown
7:55 AM 38.3 °F - 37.2 °F 96% 29.77 in 0.2 mi Calm Calm - N/A   Overcast
8:15 AM 38.1 °F - 37.0 °F 96% 29.77 in 0.2 mi Calm Calm - N/A Fog Fog
8:16 AM 38.1 °F - 37.0 °F 96% 29.77 in 0.2 mi Calm Calm - N/A Fog Fog
8:35 AM 38.5 °F - 37.4 °F 96% 29.78 in 2.0 mi Calm Calm - N/A   Overcast
8:36 AM 38.5 °F - 37.4 °F 96% 29.78 in 2.0 mi Calm Calm - N/A   Overcast
8:55 AM 38.5 °F 36.1 °F 37.4 °F 96% 29.78 in 2.0 mi South 3.5 mph - N/A   Overcast
9:15 AM 38.5 °F 36.1 °F 37.4 °F 96% 29.78 in 2.5 mi SW 3.5 mph - N/A   Overcast
9:16 AM 38.5 °F 36.1 °F 37.4 °F 96% 29.78 in 2.5 mi SW 3.5 mph - N/A   Overcast
9:35 AM 38.7 °F 36.3 °F 37.6 °F 96% 29.78 in 2.5 mi SSW 3.5 mph - N/A   Overcast
9:55 AM 38.8 °F 36.5 °F 37.4 °F 95% 29.78 in 3.0 mi SSW 3.5 mph - N/A   Overcast
10:15 AM 39.0 °F 36.8 °F 37.2 °F 93% 29.79 in 3.0 mi SW 3.5 mph - N/A   Overcast
10:35 AM 39.2 °F 37.0 °F 37.2 °F 93% 29.79 in 3.0 mi SSW 3.5 mph - N/A   Overcast
10:55 AM 39.6 °F 37.4 °F 37.0 °F 91% 29.79 in 4.0 mi South 3.5 mph - N/A   Overcast
11:15 AM 39.9 °F 36.7 °F 37.0 °F 89% 29.79 in 4.0 mi SSW 4.6 mph - N/A   Overcast
11:16 AM 39.9 °F 36.7 °F 36.9 °F 89% 29.79 in 4.0 mi SSW 4.6 mph - N/A   Overcast
11:35 AM 40.5 °F 36.5 °F 37.0 °F 88% 29.79 in 5.0 mi SW 5.8 mph - N/A   Overcast
11:36 AM 40.5 °F 36.5 °F 37.0 °F 88% 29.79 in 5.0 mi WSW 5.8 mph - N/A   Overcast
11:55 AM 40.1 °F 38.0 °F 36.3 °F 86% 29.79 in 5.0 mi SSW 3.5 mph - N/A   Overcast
11:56 AM 40.1 °F 36.9 °F 36.3 °F 86% 29.79 in 5.0 mi SSW 4.6 mph - N/A   Overcast
12:15 PM 41.0 °F 35.8 °F 36.5 °F 84% 29.80 in 7.0 mi SSW 8.1 mph - N/A   Overcast
12:35 PM 41.0 °F 38.0 °F 36.0 °F 82% 29.80 in 7.0 mi SW 4.6 mph - N/A   Overcast
12:55 PM 41.0 °F 36.4 °F 36.1 °F 83% 29.80 in 7.0 mi WSW 6.9 mph - N/A   Overcast
1:15 PM 41.0 °F 37.1 °F 36.7 °F 85% 29.80 in 7.0 mi WSW 5.8 mph - N/A   Overcast
1:35 PM 41.0 °F 37.1 °F 36.0 °F 82% 29.80 in 7.0 mi WSW 5.8 mph - N/A   Overcast
1:55 PM 41.7 °F 38.0 °F 36.1 °F 81% 29.81 in 7.0 mi WSW 5.8 mph - N/A   Overcast
1:56 PM 41.7 °F 37.3 °F 36.0 °F 80% 29.81 in 7.0 mi WSW 6.9 mph - N/A   Overcast
2:15 PM 41.9 °F 39.0 °F 36.0 °F 79% 29.81 in 7.0 mi WSW 4.6 mph - N/A   Overcast
2:16 PM 41.9 °F 39.0 °F 36.0 °F 79% 29.81 in 7.0 mi WSW 4.6 mph - N/A   Overcast
2:35 PM 41.5 °F 38.6 °F 35.8 °F 80% 29.82 in 7.0 mi WSW 4.6 mph - N/A   Overcast
2:36 PM 41.5 °F 37.8 °F 35.8 °F 80% 29.82 in 7.0 mi WSW 5.8 mph - N/A   Overcast
2:55 PM 41.9 °F 37.5 °F 33.6 °F 72% 29.82 in 10.0 mi West 6.9 mph - N/A   Overcast
2:56 PM 41.9 °F 37.5 °F 33.4 °F 72% 29.82 in 10.0 mi West 6.9 mph - N/A   Overcast
3:15 PM 42.1 °F 38.4 °F 33.1 °F 70% 29.82 in 10.0 mi West 5.8 mph - N/A   Overcast
3:35 PM 41.9 °F 39.0 °F 32.4 °F 69% 29.83 in 10.0 mi West 4.6 mph - N/A   Overcast
3:55 PM 41.9 °F 40.0 °F 32.9 °F 70% 29.84 in 10.0 mi WNW 3.5 mph - N/A   Overcast
3:56 PM 41.9 °F - 32.9 °F 70% 29.84 in 10.0 mi Calm Calm - N/A   Overcast
4:15 PM 41.4 °F 39.4 °F 32.9 °F 72% 29.84 in 10.0 mi NW 3.5 mph - N/A   Overcast
4:35 PM 41.0 °F 39.0 °F 33.1 °F 73% 29.85 in 10.0 mi NW 3.5 mph - N/A   Overcast
4:55 PM 41.0 °F 39.0 °F 33.1 °F 73% 29.86 in 10.0 mi NW 3.5 mph - N/A   Overcast
4:56 PM 41.0 °F 39.0 °F 33.1 °F 73% 29.86 in 10.0 mi NW 3.5 mph - N/A   Overcast
5:15 PM 41.0 °F 39.0 °F 33.4 °F 74% 29.87 in 10.0 mi WNW 3.5 mph - N/A   Overcast
5:16 PM 41.0 °F 39.0 °F 33.4 °F 74% 29.87 in 10.0 mi WNW 3.5 mph - N/A   Overcast
5:35 PM 41.0 °F 38.0 °F 33.6 °F 75% 29.88 in 10.0 mi West 4.6 mph - N/A   Overcast
5:55 PM 41.0 °F 37.1 °F 33.1 °F 73% 29.88 in 10.0 mi West 5.8 mph - N/A   Overcast
5:56 PM 41.0 °F 37.1 °F 33.1 °F 73% 29.88 in 10.0 mi West 5.8 mph - N/A   Overcast
6:15 PM 40.6 °F 38.6 °F 33.1 °F 74% 29.89 in 10.0 mi West 3.5 mph - N/A   Overcast
6:35 PM 40.5 °F 38.4 °F 33.1 °F 75% 29.89 in 10.0 mi West 3.5 mph - N/A   Overcast
6:55 PM 40.1 °F 38.0 °F 33.8 °F 78% 29.90 in 10.0 mi WSW 3.5 mph - N/A   Overcast
6:56 PM 40.1 °F 38.0 °F 33.8 °F 78% 29.90 in 10.0 mi West 3.5 mph - N/A   Overcast
7:15 PM 40.3 °F 38.2 °F 33.1 °F 75% 29.90 in 10.0 mi West 3.5 mph - N/A   Overcast
7:35 PM 40.3 °F 38.2 °F 32.7 °F 74% 29.91 in 10.0 mi West 3.5 mph - N/A   Overcast
7:55 PM 40.3 °F 38.2 °F 32.4 °F 73% 29.91 in 10.0 mi West 3.5 mph - N/A   Overcast
8:15 PM 40.1 °F 38.0 °F 32.5 °F 74% 29.92 in 10.0 mi West 3.5 mph - N/A   Overcast
8:35 PM 39.7 °F 37.6 °F 32.9 °F 77% 29.92 in 10.0 mi West 3.5 mph - N/A   Overcast
8:36 PM 39.7 °F 37.6 °F 32.9 °F 77% 29.92 in 10.0 mi West 3.5 mph - N/A   Overcast
8:55 PM 40.1 °F 36.9 °F 32.5 °F 74% 29.93 in 10.0 mi West 4.6 mph - N/A   Overcast
8:56 PM 40.1 °F 36.9 °F 32.5 °F 74% 29.93 in 10.0 mi West 4.6 mph - N/A   Overcast
9:15 PM 40.1 °F 36.9 °F 32.5 °F 74% 29.93 in 10.0 mi West 4.6 mph - N/A   Overcast
9:16 PM 40.1 °F 36.9 °F 32.5 °F 74% 29.93 in 10.0 mi West 4.6 mph - N/A   Overcast
9:35 PM 39.9 °F 36.7 °F 32.9 °F 76% 29.94 in 10.0 mi West 4.6 mph - N/A   Overcast
9:36 PM 39.7 °F 35.6 °F 32.9 °F 77% 29.94 in 10.0 mi West 5.8 mph - N/A   Overcast
9:55 PM 39.6 °F 36.3 °F 32.9 °F 77% 29.95 in 10.0 mi West 4.6 mph - N/A   Overcast
10:15 PM 39.4 °F 35.2 °F 33.3 °F 79% 29.95 in 7.0 mi West 5.8 mph - N/A   Overcast
10:16 PM 39.4 °F 35.2 °F 33.3 °F 79% 29.95 in 7.0 mi West 5.8 mph - N/A   Overcast
10:35 PM 39.2 °F 35.0 °F 33.1 °F 79% 29.95 in 7.0 mi West 5.8 mph - N/A   Overcast
10:36 PM 39.2 °F 35.9 °F 33.3 °F 79% 29.95 in 7.0 mi West 4.6 mph - N/A   Overcast
10:55 PM 39.4 °F 37.2 °F 33.4 °F 79% 29.95 in 7.0 mi West 3.5 mph - N/A   Overcast
11:15 PM 39.2 °F 35.9 °F 33.8 °F 81% 29.96 in 7.0 mi WSW 4.6 mph - N/A   Overcast
11:35 PM 38.8 °F - 34.7 °F 85% 29.97 in 7.0 mi Calm Calm - N/A   Overcast
11:36 PM 38.8 °F - 34.7 °F 85% 29.97 in 7.0 mi Calm Calm - N/A   Overcast
11:55 PM 38.7 °F - 34.7 °F 86% 29.97 in 7.0 mi Calm Calm - N/A   Overcast